Find Starlink 36445

NORAD ID: 67313 Int'l Des: 2026-002 Owner: SPXS Country: US Constellation: starlink operational
LEOCIRCULAR

Current View

Loading 3D Globe...

About Starlink 36445

Description loading...

Upcoming Passes

Passes for default location (London). Set your location on the main map for personalized predictions.

Altitude History

Loading altitude history...

Two-Line Element Set

1 67313U 26002J 26145.64048625 .00015815 00000-0 58274-3 0 9992
2 67313 42.9991 251.0325 0001407 279.9794 80.0899 15.27594011 23007
Epoch: May 25, 2026 • Age: 16 hours

Current Status

Altitude 486.9 km
Velocity 7.63 km/s
Sub-Earth Point 42.28°N, 5.04°W
Launch Date Jan 4, 2026
Age 0.3 years
Type internet

Technical Details

Classification Payload
Mass 575.00 kg
Dry Mass 530.00 kg
Total Mass 575.00 kg
Length 0.30 m
Diameter 4.10 m
Span 29.00 m
Shape Box + pan
Manufacturer SPXS
Bus Type Starlink V2MO
Phase Status In Orbit
Owner/State SPXS/US

Most Searched